FREGAT R/B, 44851

Orbit data source: Space-Track

FREGAT R/B, 44851 is space debris in MEO originally from a launch on Wed, 11 Dec 2019 UTC launched from the Plesetsk Missile And Space Complex (PKMTR). Debris objects in space refer to the collection of defunct objects orbiting the Earth. Examples of debris include non-operational satellites, rocket bodies, and fragments generated from explosions, collisions, or faulty payload assembly.

Loading next visibility...
Identifier
44851, 2019-088B
Orbit
MEO
Country
Flag of CISCIS
Related business
Manufacturer
Lavochkin
Mission
Spacecraft
Bus & Motor
FREGAT, Unknown motor
Mass
1,000 kg wet, 1,000 kg dry
Launch date (UTC)
2019-12-11 (7 years ago)
Launch vehicle
Unknown
Launch site
Plesetsk Missile And Space Complex (PKMTR)
Object type
Payload
Rocket body
Debris
Shape & HBR
Cyl, 1.8 m
Radar Cross Section
8.354 m², Large (>1 m²)

Expand to show TLE details & history
Last TLE update: 3 days ago

TLE from 3 days ago
0 FREGAT R/B
1 44851U 19088B   26254.82496164  .00000011  00000-0  00000+0 0  9998
2 44851  65.5672  74.0610 0110745  96.2170 265.0892  2.09212665 51636
Epoch: 2026-09-11T19:47Z
TLE epoch observation values (Epoch: 2026-09-11T19:47:56.685Z)
Latitude
-0.00005°
Longitude
146.222°
Altitude
19,473.554 km
Speed
3.925 km/s
True Right ascension
04h 56m 12s
True Declination
0° 00' 00"
Sunlit
Object was in daylight at epoch
Visualization orbit readout
Latitude
Unknown
Longitude
Unknown
Altitude
Unknown
Speed
Unknown
Apparent Right ascension
Unknown
Apparent Declination
Unknown
Sunlit
N/A
Visualization observer readout
Local Sidereal Time
02:23:56
Azimuth
Unknown
Elevation
Unknown
Doppler factor
Unknown
Orbital elements
Apogee altitude
19,730.626 km
Perigee altitude
19,158.677 km
Semi-major axis
25,822.789 km
Eccentricity
0.01107
Inclination
65.5672°
RAAN
74.061°
Arg. of periapsis
96.217°
True anomaly
263.82641°
Mean anomaly
265.0892°
Eccentric anomaly
264.45764°
Mean motion
0.52304 °/min
Orbital period
688.28 mins
BSTAR
0
Loading maneuver chart data...
Computing Atmospheric mass density...
Loading historical data...
Loading historical data...
Loading historical data...
Loading historical data...
Loading historical data...
Loading historical data...
Loading historical data...
Other satellites on launch #88 in the year 2019 (2019-12-11 UTC)

Documentation

Showing up to 5 results
|